GW4807 Weather Reports


Display with metric or nautical units.
time (UTC)temp
F
wind
direction
speed
MPH
gust
MPH
rain 1hr
in
rain 24hr
in
rain mn
in
humidity
%
barometer
mb
20260508051937 43 97 0.0 0.0 0.00 0.00 0.00 97 1009.0
20260508051432 43 103 0.0 0.0 0.00 0.00 0.00 97 1008.9
20260508050928 43 102 0.0 0.0 0.00 0.00 0.00 96 1009.1
20260508050425 43 101 0.0 0.0 0.00 0.00 0.00 96 1009.1
20260508045921 44 101 0.0 0.0 0.00 0.00 0.00 96 1008.8
20260508045419 44 105 0.0 0.0 0.00 0.00 0.00 96 1008.8
20260508044916 43 95 0.0 0.0 0.00 0.00 0.00 95 1008.9
20260508044413 43 105 0.0 0.0 0.00 0.00 0.00 95 1009.0
20260508043903 44 102 0.0 0.0 0.00 0.00 0.00 94 1009.0
20260508043401 44 103 0.0 0.0 0.00 0.00 0.00 94 1009.0
20260508042857 44 102 0.0 0.0 0.00 0.00 0.00 94 1009.0
20260508042354 44 102 0.0 0.0 0.00 0.00 0.00 94 1009.1
20260508041851 44 103 0.0 0.0 0.00 0.00 0.00 94 1009.3
20260508041347 44 107 0.0 0.0 0.00 0.00 0.00 93 1009.5
20260508040844 44 103 0.0 0.0 0.00 0.00 0.00 91 1009.5
20260508040342 44 103 0.0 0.0 0.00 0.00 0.00 91 1009.2
20260508035839 45 102 0.0 0.0 0.00 0.00 0.00 91 1009.2
20260508035336 45 103 0.0 0.0 0.00 0.00 0.00 90 1009.2
20260508034833 46 102 0.0 0.0 0.00 0.00 0.00 90 1009.3
20260508034330 46 102 0.0 0.0 0.00 0.00 0.00 90 1009.5
20260508033827 46 103 0.0 0.0 0.00 0.00 0.00 90 1009.4
20260508033325 46 106 0.0 0.0 0.00 0.00 0.00 90 1009.4
20260508032822 46 106 0.0 0.0 0.00 0.00 0.00 90 1009.1
20260508032319 46 105 0.0 0.0 0.00 0.00 0.00 89 1009.3
20260508031816 46 105 0.0 0.0 0.00 0.00 0.00 88 1009.3
20260508031313 47 103 0.0 0.0 0.00 0.00 0.00 87 1009.1
20260508030809 47 103 0.0 0.0 0.00 0.00 0.00 87 1009.0
20260508030307 47 102 0.0 0.0 0.00 0.00 0.00 87 1009.2
20260508025803 47 107 0.0 0.0 0.00 0.00 0.00 86 1008.9
20260508025300 47 104 0.0 0.0 0.00 0.00 0.00 86 1009.1
20260508024756 48 104 0.0 0.0 0.00 0.00 0.00 84 1008.8
20260508024253 48 104 0.0 0.0 0.00 0.00 0.00 84 1008.8
20260508023750 48 104 0.0 0.0 0.00 0.00 0.00 84 1008.7
20260508023247 49 105 0.0 0.0 0.00 0.00 0.00 83 1008.7
20260508022743 49 107 0.0 0.0 0.00 0.00 0.00 82 1008.4
20260508022240 49 104 0.0 0.0 0.00 0.00 0.00 82 1008.5
20260508021737 49 107 0.0 0.0 0.00 0.00 0.00 82 1008.5
20260508021232 50 105 0.0 0.0 0.00 0.00 0.00 81 1008.4
20260508020729 50 103 0.0 0.0 0.00 0.00 0.00 80 1008.1
20260508020227 51 103 0.0 0.0 0.00 0.00 0.00 80 1008.1
20260508015723 51 111 0.0 0.0 0.00 0.00 0.00 80 1008.0
20260508015220 51 115 0.0 0.0 0.00 0.00 0.00 79 1008.2
20260508014717 51 108 0.0 0.0 0.00 0.00 0.00 78 1008.5
20260508014214 52 108 0.0 0.0 0.00 0.00 0.00 77 1007.9
20260508013709 52 121 0.0 1.0 0.00 0.00 0.00 76 1008.0
20260508013206 52 112 0.0 0.0 0.00 0.00 0.00 76 1008.0
20260508012704 53 107 0.0 0.0 0.00 0.00 0.00 76 1008.1
20260508012200 53 117 0.0 0.0 0.00 0.00 0.00 76 1007.9
20260508011659 54 115 0.0 0.0 0.00 0.00 0.00 75 1007.6
20260508011156 54 110 0.0 0.0 0.00 0.00 0.00 74 1007.5
20260508010653 55 122 0.0 1.0 0.00 0.00 0.00 72 1007.7
20260508010151 56 110 0.0 0.0 0.00 0.00 0.00 71 1007.7
20260508005648 56 117 0.0 0.0 0.00 0.00 0.00 68 1007.6
20260508005145 57 123 1.0 1.0 0.00 0.00 0.00 67 1007.6
20260508004640 57 132 1.0 1.0 0.00 0.00 0.00 69 1007.8
20260508004136 58 133 0.0 1.0 0.00 0.00 0.00 65 1007.7
20260508003633 59 123 0.0 1.0 0.00 0.00 0.00 62 1007.5
20260508003131 60 136 1.0 1.0 0.00 0.00 0.00 60 1007.7
20260508002627 61 119 0.0 1.0 0.00 0.00 0.00 57 1007.6
20260508002126 62 128 0.0 0.0 0.00 0.00 0.00 54 1007.7
20260508001625 63 111 0.0 0.0 0.00 0.00 0.00 53 1007.5
20260508001122 64 111 0.0 1.0 0.00 0.00 0.00 50 1007.6
20260508000617 65 155 1.0 1.0 0.00 0.00 0.00 45 1007.8
20260508000115 66 121 0.0 1.0 0.00 0.00 0.00 45 1007.6
20260507235612 66 153 1.0 1.0 0.00 0.00 0.00 43 1007.6
20260507235109 66 92 0.0 1.0 0.00 0.00 0.00 44 1007.7
20260507234606 67 90 0.0 1.0 0.00 0.00 0.00 42 1007.6
20260507234102 67 76 1.0 2.0 0.00 0.00 0.00 43 1007.7
20260507233559 68 112 1.0 2.0 0.00 0.00 0.00 40 1007.7
20260507233058 68 153 1.0 2.0 0.00 0.00 0.00 40 1007.6
20260507232553 69 177 3.0 5.0 0.00 0.00 0.00 41 1007.6
20260507232051 70 340 2.0 3.0 0.00 0.00 0.00 37 1007.7
20260507231547 70 205 2.0 2.0 0.00 0.00 0.00 40 1007.8
20260507231045 69 197 1.0 2.0 0.00 0.00 0.00 40 1007.8
20260507230541 69 168 3.0 3.0 0.00 0.00 0.00 39 1007.9
20260507230038 69 335 1.0 2.0 0.00 0.00 0.00 41 1008.0
20260507225533 69 304 3.0 5.0 0.00 0.00 0.00 40 1008.1
20260507225029 69 226 4.0 6.0 0.00 0.00 0.00 38 1008.2
20260507224525 69 294 3.0 3.0 0.00 0.00 0.00 38 1008.0
20260507224022 70 194 1.0 1.0 0.00 0.00 0.00 39 1008.0
20260507223518 70 73 0.0 1.0 0.00 0.00 0.00 40 1008.2
20260507223016 71 171 1.0 2.0 0.00 0.00 0.00 38 1007.9
20260507222513 70 95 0.0 0.0 0.00 0.00 0.00 42 1008.2
20260507222008 69 130 2.0 3.0 0.00 0.00 0.00 37 1008.4
20260507221505 69 322 4.0 5.0 0.00 0.00 0.00 38 1008.2
20260507221002 69 279 3.0 3.0 0.00 0.00 0.00 40 1008.5
20260507220459 69 117 1.0 2.0 0.00 0.00 0.00 37 1008.2
20260507215956 69 297 2.0 3.0 0.00 0.00 0.00 39 1008.2
20260507215452 69 192 3.0 5.0 0.00 0.00 0.00 38 1008.2
20260507214950 70 183 3.0 3.0 0.00 0.00 0.00 36 1008.0
20260507214447 70 156 3.0 5.0 0.00 0.00 0.00 37 1008.4
20260507213943 69 147 1.0 1.0 0.00 0.00 0.00 37 1008.1
20260507213440 69 192 4.0 6.0 0.00 0.00 0.00 38 1008.4
20260507212937 71 202 3.0 5.0 0.00 0.00 0.00 35 1008.6
20260507212432 70 95 0.0 0.0 0.00 0.00 0.00 42 1008.4
20260507211929 71 198 4.0 6.0 0.00 0.00 0.00 36 1008.4
20260507211426 70 152 0.0 1.0 0.00 0.00 0.00 40 1008.7
20260507210923 70 339 2.0 3.0 0.00 0.00 0.00 38 1008.7
20260507210420 70 198 3.0 6.0 0.00 0.00 0.00 42 1008.6
20260507205917 71 334 3.0 3.0 0.00 0.00 0.00 37 1008.7
20260507205414 70 200 1.0 1.0 0.00 0.00 0.00 39 1009.0
20260507204910 69 108 1.0 1.0 0.00 0.00 0.00 43 1008.9
20260507204406 68 242 2.0 3.0 0.00 0.00 0.00 41 1009.1
20260507203904 68 263 3.0 3.0 0.00 0.00 0.00 42 1009.1
20260507203402 69 230 5.0 7.0 0.00 0.00 0.00 37 1009.1
20260507202858 69 162 2.0 2.0 0.00 0.00 0.00 39 1009.3
20260507202354 68 129 0.0 0.0 0.00 0.00 0.00 36 1009.4
20260507201850 67 215 3.0 5.0 0.00 0.00 0.00 37 1009.5
20260507201346 68 247 2.0 2.0 0.00 0.00 0.00 37 1009.3
20260507200842 68 230 7.0 9.0 0.00 0.00 0.00 37 1009.2
20260507200338 69 283 2.0 3.0 0.00 0.00 0.00 41 1009.3
20260507195835 69 119 2.0 2.0 0.00 0.00 0.00 40 1009.4
20260507195332 69 44 2.0 2.0 0.00 0.00 0.00 43 1009.4
20260507194829 68 112 3.0 5.0 0.00 0.00 0.00 40 1009.5
20260507194325 68 160 2.0 3.0 0.00 0.00 0.00 41 1009.7
20260507193822 68 316 2.0 3.0 0.00 0.00 0.00 40 1009.6
20260507193314 68 223 2.0 2.0 0.00 0.00 0.00 41 1009.7
20260507192809 68 235 2.0 2.0 0.00 0.00 0.00 42 1009.7
20260507192307 67 278 4.0 6.0 0.00 0.00 0.00 36 1009.8
20260507191803 67 229 1.0 2.0 0.00 0.00 0.00 43 1009.6
20260507191259 67 149 2.0 3.0 0.00 0.00 0.00 37 1009.8
20260507190756 68 174 3.0 5.0 0.00 0.00 0.00 39 1010.1
20260507190255 67 67 1.0 1.0 0.00 0.00 0.00 42 1010.0
20260507185753 67 330 2.0 2.0 0.00 0.00 0.00 42 1009.9
20260507185249 67 215 3.0 5.0 0.00 0.00 0.00 44 1010.0
20260507184747 67 167 1.0 1.0 0.00 0.00 0.00 44 1010.2
20260507184245 68 289 2.0 5.0 0.00 0.00 0.00 39 1010.2
20260507183741 68 163 1.0 2.0 0.00 0.00 0.00 41 1010.0
20260507183238 66 91 0.0 1.0 0.00 0.00 0.00 37 1010.3
20260507182736 67 183 3.0 3.0 0.00 0.00 0.00 42 1010.3
20260507182235 65 148 1.0 1.0 0.00 0.00 0.00 46 1010.4
20260507181733 66 83 1.0 2.0 0.00 0.00 0.00 41 1010.2
20260507181229 65 58 1.0 2.0 0.00 0.00 0.00 40 1010.5
20260507180726 65 99 3.0 3.0 0.00 0.00 0.00 44 1010.5
20260507180223 65 191 4.0 6.0 0.00 0.00 0.00 38 1010.6
20260507175718 65 156 2.0 3.0 0.00 0.00 0.00 39 1010.7
20260507175215 64 99 0.0 0.0 0.00 0.00 0.00 42 1010.8
20260507174713 64 321 3.0 5.0 0.00 0.00 0.00 40 1011.0
20260507174211 65 73 0.0 0.0 0.00 0.00 0.00 40 1010.8
20260507173708 64 176 2.0 2.0 0.00 0.00 0.00 42 1010.9
20260507173205 64 171 4.0 7.0 0.00 0.00 0.00 39 1011.2
20260507172701 64 51 1.0 2.0 0.00 0.00 0.00 41 1011.2
20260507172158 63 191 3.0 6.0 0.00 0.00 0.00 45 1011.3
20260507171658 63 346 1.0 1.0 0.00 0.00 0.00 47 1011.2
20260507171156 62 81 1.0 1.0 0.00 0.00 0.00 46 1011.2
20260507170653 62 171 2.0 2.0 0.00 0.00 0.00 45 1011.5
20260507170150 62 105 1.0 1.0 0.00 0.00 0.00 45 1011.4
20260507165645 61 150 3.0 3.0 0.00 0.00 0.00 43 1011.3
20260507165142 61 212 3.0 3.0 0.00 0.00 0.00 45 1011.4
20260507164637 61 177 5.0 7.0 0.00 0.00 0.00 41 1011.7
20260507164135 61 218 5.0 6.0 0.00 0.00 0.00 43 1011.7
20260507163632 60 219 1.0 2.0 0.00 0.00 0.00 40 1011.5
20260507163130 60 177 3.0 3.0 0.00 0.00 0.00 41 1011.9
20260507162625 61 213 4.0 5.0 0.00 0.00 0.00 44 1011.9
20260507162122 61 75 1.0 1.0 0.00 0.00 0.00 41 1011.8
20260507161618 60 124 1.0 2.0 0.00 0.00 0.00 42 1012.1
20260507161115 60 212 1.0 2.0 0.00 0.00 0.00 47 1012.2
20260507160612 60 206 3.0 3.0 0.00 0.00 0.00 43 1012.2
20260507160108 60 182 6.0 8.0 0.00 0.00 0.00 45 1012.3
20260507155603 60 176 3.0 5.0 0.00 0.00 0.00 44 1012.2
20260507155100 60 293 3.0 3.0 0.00 0.00 0.00 43 1012.1
20260507154557 60 260 1.0 2.0 0.00 0.00 0.00 42 1012.1
20260507154054 60 180 4.0 7.0 0.00 0.00 0.00 42 1012.0
20260507153551 61 56 1.0 1.0 0.00 0.00 0.00 39 1012.0
20260507153047 62 176 1.0 1.0 0.00 0.00 0.00 46 1012.1
20260507152543 61 31 1.0 1.0 0.00 0.00 0.00 42 1012.2
20260507152040 61 109 1.0 1.0 0.00 0.00 0.00 44 1012.0
20260507151536 62 186 3.0 5.0 0.00 0.00 0.00 45 1012.1
20260507151033 61 66 0.0 1.0 0.00 0.00 0.00 50 1012.1
20260507150530 60 81 0.0 1.0 0.00 0.00 0.00 48 1012.3
20260507150027 60 71 1.0 1.0 0.00 0.00 0.00 53 1012.4
20260507145521 59 137 1.0 1.0 0.00 0.00 0.00 54 1012.6
20260507145020 57 80 0.0 0.0 0.00 0.00 0.00 50 1012.6
20260507144516 57 108 0.0 0.0 0.00 0.00 0.00 54 1012.7
20260507144014 57 179 2.0 2.0 0.00 0.00 0.00 51 1012.4
20260507143511 57 156 2.0 2.0 0.00 0.00 0.00 54 1012.5
20260507143008 57 61 1.0 1.0 0.00 0.00 0.00 52 1012.4
20260507142503 58 30 0.0 1.0 0.00 0.00 0.00 60 1012.6
20260507142000 59 43 0.0 1.0 0.00 0.00 0.00 64 1012.6
20260507141456 57 91 0.0 1.0 0.00 0.00 0.00 69 1012.4
20260507140953 55 77 1.0 1.0 0.00 0.00 0.00 69 1012.8
20260507140450 54 148 1.0 2.0 0.00 0.00 0.00 70 1012.8
20260507135947 54 71 1.0 1.0 0.00 0.00 0.00 69 1012.8
20260507135444 54 91 0.0 0.0 0.00 0.00 0.00 77 1012.7
20260507134941 51 79 0.0 0.0 0.00 0.00 0.00 78 1012.9
20260507134438 51 68 0.0 1.0 0.00 0.00 0.00 81 1013.0
20260507133934 51 140 0.0 1.0 0.00 0.00 0.00 85 1012.8
20260507133430 51 113 1.0 1.0 0.00 0.00 0.00 89 1012.8
20260507132929 50 94 0.0 1.0 0.00 0.00 0.00 94 1012.8
20260507132424 48 82 0.0 1.0 0.00 0.00 0.00 94 1012.8
20260507131921 47 78 1.0 1.0 0.00 0.00 0.00 94 1012.8
20260507131418 47 69 0.0 0.0 0.00 0.00 0.00 99 1012.8
20260507130915 46 84 0.0 0.0 0.00 0.00 0.00 99 1013.0
20260507130412 44 92 0.0 1.0 0.00 0.00 0.00 99 1012.6
20260507125911 43 78 0.0 0.0 0.00 0.00 0.00 99 1012.6
20260507125409 43 103 0.0 0.0 0.00 0.00 0.00 99 1012.8
20260507124906 43 92 0.0 0.0 0.00 0.00 0.00 99 1012.7
20260507124401 42 139 1.0 1.0 0.00 0.00 0.00 99 1012.6
20260507123900 41 112 1.0 1.0 0.00 0.00 0.00 99 1012.5
20260507123357 40 145 1.0 1.0 0.00 0.00 0.00 99 1012.8
20260507122853 41 184 2.0 2.0 0.00 0.00 0.00 99 1012.7
20260507122349 40 78 0.0 0.0 0.00 0.00 0.00 99 1012.6
20260507121845 40 76 0.0 0.0 0.00 0.00 0.00 99 1012.4
20260507121341 40 71 0.0 0.0 0.00 0.00 0.00 99 1012.5
20260507120837 39 89 0.0 0.0 0.00 0.00 0.00 99 1012.4
20260507120334 39 89 0.0 0.0 0.00 0.00 0.00 99 1012.5
20260507115830 39 89 0.0 0.0 0.00 0.00 0.00 99 1012.3
20260507115326 39 88 0.0 0.0 0.00 0.00 0.00 99 1012.2
20260507114822 38 91 0.0 0.0 0.00 0.00 0.00 99 1012.2
20260507114319 38 89 0.0 0.0 0.00 0.00 0.00 99 1012.1
20260507113817 38 89 0.0 0.0 0.00 0.00 0.00 99 1012.3
20260507113313 37 89 0.0 0.0 0.00 0.00 0.00 99 1012.1
20260507112811 37 89 0.0 0.0 0.00 0.00 0.00 99 1012.2
20260507112308 37 88 0.0 0.0 0.00 0.00 0.00 99 1012.3
20260507111806 37 93 0.0 0.0 0.00 0.00 0.00 99 1012.0
20260507111302 37 89 0.0 0.0 0.00 0.00 0.00 99 1012.0
20260507110758 37 86 0.0 0.0 0.00 0.00 0.00 99 1012.0
20260507110255 37 91 0.0 0.0 0.00 0.00 0.00 99 1011.9
20260507105752 36 91 0.0 0.0 0.00 0.00 0.00 99 1011.7
20260507105247 36 91 0.0 0.0 0.00 0.00 0.00 99 1011.9
20260507104745 36 92 0.0 0.0 0.00 0.00 0.00 99 1012.0
20260507104236 36 83 0.0 0.0 0.00 0.00 0.00 99 1011.8
20260507103732 36 94 0.0 0.0 0.00 0.00 0.00 99 1011.7
20260507103229 36 119 0.0 0.0 0.00 0.00 0.00 99 1011.5
20260507102725 36 92 0.0 0.0 0.00 0.00 0.00 99 1011.9
20260507102221 36 94 0.0 0.0 0.00 0.00 0.00 99 1012.0
20260507101718 36 104 0.0 0.0 0.00 0.00 0.00 99 1012.1
20260507101213 35 97 0.0 0.0 0.00 0.00 0.00 99 1011.9
20260507100710 35 92 0.0 0.0 0.00 0.00 0.00 99 1012.0
20260507100209 35 107 0.0 0.0 0.00 0.00 0.00 99 1012.1
20260507095707 34 85 0.0 0.0 0.00 0.00 0.00 99 1011.9
20260507095203 34 111 0.0 0.0 0.00 0.00 0.00 99 1011.5
20260507094700 34 95 0.0 0.0 0.00 0.00 0.00 99 1011.8
20260507094156 34 95 0.0 0.0 0.00 0.00 0.00 99 1011.9
20260507093654 34 91 0.0 0.0 0.00 0.00 0.00 99 1011.8
20260507093152 35 96 0.0 0.0 0.00 0.00 0.00 99 1012.1
20260507092649 35 96 0.0 0.0 0.00 0.00 0.00 99 1012.1
20260507092146 35 99 0.0 0.0 0.00 0.00 0.00 99 1011.7
20260507091642 35 89 0.0 0.0 0.00 0.00 0.00 99 1011.5
20260507091138 35 94 0.0 0.0 0.00 0.00 0.00 99 1011.4
20260507090634 35 92 0.0 0.0 0.00 0.00 0.00 99 1011.4
20260507090132 35 93 0.0 0.0 0.00 0.00 0.00 99 1011.2
20260507085628 35 92 0.0 0.0 0.00 0.00 0.00 99 1011.5
20260507085125 35 92 0.0 0.0 0.00 0.00 0.00 99 1011.3
20260507084622 35 87 0.0 0.0 0.00 0.00 0.00 99 1011.5
20260507084118 35 92 0.0 0.0 0.00 0.00 0.00 99 1011.5
20260507083615 35 94 0.0 0.0 0.00 0.00 0.00 99 1011.5
20260507083112 35 95 0.0 0.0 0.00 0.00 0.00 99 1011.7
20260507082607 35 94 0.0 0.0 0.00 0.00 0.00 99 1011.8
20260507082104 35 95 0.0 0.0 0.00 0.00 0.00 99 1011.8
20260507081601 35 95 0.0 0.0 0.00 0.00 0.00 99 1012.1
20260507081058 35 94 0.0 0.0 0.00 0.00 0.00 99 1012.2
20260507080554 35 94 0.0 0.0 0.00 0.00 0.00 99 1012.1
20260507080050 35 94 0.0 0.0 0.00 0.00 0.00 99 1012.0
20260507075545 36 95 0.0 0.0 0.00 0.00 0.00 99 1012.3
20260507075042 36 94 0.0 0.0 0.00 0.00 0.00 99 1012.0
20260507074538 36 95 0.0 0.0 0.00 0.00 0.00 99 1011.9
20260507074032 36 95 0.0 0.0 0.00 0.00 0.00 99 1011.9
20260507073527 36 93 0.0 0.0 0.00 0.00 0.00 99 1012.0
20260507073024 36 90 0.0 0.0 0.00 0.00 0.00 99 1012.0
20260507072521 36 86 0.0 0.0 0.00 0.00 0.00 99 1012.1
20260507072019 37 92 0.0 0.0 0.00 0.00 0.00 99 1012.1
20260507071516 37 92 0.0 0.0 0.00 0.00 0.00 99 1012.1
20260507071012 37 92 0.0 0.0 0.00 0.00 0.00 99 1012.1
20260507070510 37 95 0.0 0.0 0.00 0.00 0.00 98 1012.0
20260507070010 37 95 0.0 0.0 0.00 0.00 0.00 98 1011.7
20260507065503 37 94 0.0 0.0 0.00 0.00 0.00 98 1011.9
20260507065000 37 94 0.0 0.0 0.00 0.00 0.00 98 1012.0
20260507064458 37 97 0.0 0.0 0.00 0.00 0.00 98 1012.0
20260507063956 37 95 0.0 0.0 0.00 0.00 0.00 97 1012.0
20260507063453 38 94 0.0 0.0 0.00 0.00 0.00 97 1012.1
20260507062950 38 95 0.0 0.0 0.00 0.00 0.00 97 1012.0
20260507062447 38 94 0.0 0.0 0.00 0.00 0.00 97 1012.1
20260507061944 38 95 0.0 0.0 0.00 0.00 0.00 97 1011.9
20260507061442 39 90 0.0 0.0 0.00 0.00 0.00 97 1012.1
20260507060940 39 91 0.0 0.0 0.00 0.00 0.00 97 1012.1
20260507060437 39 95 0.0 0.0 0.00 0.00 0.00 96 1012.3
20260507055933 39 81 0.0 0.0 0.00 0.00 0.00 96 1012.2
20260507055429 39 95 0.0 0.0 0.00 0.00 0.00 95 1012.2
20260507054926 39 92 0.0 0.0 0.00 0.00 0.00 95 1012.2
20260507054422 39 96 0.0 0.0 0.00 0.00 0.00 95 1011.9
20260507053919 39 92 0.0 0.0 0.00 0.00 0.00 95 1011.7
20260507053416 39 95 0.0 0.0 0.00 0.00 0.00 94 1011.7
20260507052915 40 94 0.0 0.0 0.00 0.00 0.00 94 1011.8